Cahokia, IL

12:02 PM CDT on July 26, 2017 (GMT -0500)
Saint Louis Downtown

Weather History for KCPS - July, 2013

Change the Weather History Date:

Saturday, July 6, 2013

  Actual Average Record
Temperature  
Mean Temperature 76 °F -  
Max Temperature 88 °F 89 °F 107 °F (2012)
Min Temperature 66 °F 68 °F 55 °F (2006)
Cooling Degree Days 12    
Growing Degree Days 26 (Base 50)    
Moisture  
Dew Point 65 °F    
Average Humidity 71    
Maximum Humidity 96    
Minimum Humidity 46    
Precipitation  
Precipitation 0.00 in - - ()
Sea Level Pressure  
Sea Level Pressure 30.01 in    
Wind  
Wind Speed 3 mph (SSE)    
Max Wind Speed 9 mph    
Max Gust Speed -    
Visibility 10 miles    
Events      
Averages and records for this station are not official NWS values.
T = Trace of Precipitation, MM = Missing Value Source: NWS Daily Summary

Daily Weather History Graph

Daily Weather History Graph

Search for Another Location

Airport or City:

Trip Planner

Search our weather history database for the weather conditions in past years. The results will help you decide how hot, cold, wet, or windy it might be!

Date:

Astronomy

Jul. 06, 2013 Rise Set
Actual Time 5:42 AM CDT 8:27 PM CDT
Civil Twilight 5:11 AM CDT 8:59 PM CDT
Nautical Twilight 4:31 AM CDT 9:38 PM CDT
Astronomical Twilight 3:47 AM CDT 10:23 PM CDT
Moon 4:28 AM CDT (7/6) 7:10 PM CDT (7/6)
Length of Visible Light 15h 48m
Length of Day
14h 45m
Waning Crescent, 2% of the Moon is Illuminated
Jul 6
Waning Crescent
Jul 8
New
Jul 15
First Quarter
Jul 22
Full
Jul 29
Last Quarter

Hourly Weather History & Observations

Time (CDT) Temp. Heat Index Dew Point Humidity Pressure Visibility Wind Dir Wind Speed Gust Speed Precip Events Conditions
12:53 AM 71.1 °F - 66.0 °F 84% 30.02 in 10.0 mi SSE 3.5 mph - N/A   Clear
1:53 AM 69.1 °F - 66.0 °F 90% 30.03 in 10.0 mi Calm Calm - N/A   Clear
2:53 AM 66.9 °F - 64.9 °F 93% 30.02 in 10.0 mi Calm Calm - N/A   Clear
3:53 AM 68.0 °F - 64.9 °F 90% 30.02 in 8.0 mi Calm Calm - N/A   Clear
4:53 AM 66.9 °F - 64.9 °F 93% 30.02 in 7.0 mi Calm Calm - N/A   Clear
5:53 AM 66.0 °F - 64.9 °F 96% 30.03 in 6.0 mi Calm Calm - N/A   Clear
6:53 AM 69.1 °F - 66.0 °F 90% 30.04 in 8.0 mi Calm Calm - N/A   Clear
7:53 AM 71.1 °F - 68.0 °F 90% 30.05 in 10.0 mi Calm Calm - N/A   Clear
8:53 AM 75.0 °F - 69.1 °F 82% 30.05 in 10.0 mi SSE 4.6 mph - N/A   Clear
9:53 AM 79.0 °F - 68.0 °F 69% 30.04 in 10.0 mi Variable 4.6 mph - N/A   Clear
10:53 AM 82.0 °F 84.5 °F 66.9 °F 60% 30.04 in 10.0 mi WSW 6.9 mph - N/A   Clear
11:53 AM 84.0 °F 86.5 °F 66.9 °F 56% 30.04 in 10.0 mi Variable 3.5 mph - N/A   Mostly Cloudy
12:53 PM 86.0 °F 88.8 °F 66.9 °F 53% 30.02 in 10.0 mi South 3.5 mph - N/A   Scattered Clouds
1:53 PM 84.9 °F 88.2 °F 68.0 °F 57% 30.00 in 10.0 mi SSE 8.1 mph - N/A   Scattered Clouds
2:53 PM 87.1 °F 88.3 °F 64.0 °F 46% 29.98 in 10.0 mi Variable 3.5 mph - N/A   Clear
3:53 PM 84.0 °F 86.3 °F 66.0 °F 55% 29.98 in 10.0 mi SSE 6.9 mph - N/A   Clear
4:53 PM 86.0 °F 87.3 °F 64.0 °F 48% 29.97 in 10.0 mi Variable 5.8 mph - N/A   Clear
5:53 PM 84.9 °F 87.1 °F 66.0 °F 53% 29.96 in 10.0 mi South 5.8 mph - N/A   Clear
6:53 PM 80.1 °F 81.1 °F 61.0 °F 52% 29.97 in 10.0 mi SW 9.2 mph - N/A   Clear
7:53 PM 75.9 °F - 57.9 °F 54% 29.99 in 10.0 mi East 3.5 mph - N/A   Clear
8:53 PM 73.9 °F - 59.0 °F 59% 30.00 in 10.0 mi SE 5.8 mph - N/A   Clear
9:53 PM 73.0 °F - 64.0 °F 73% 30.01 in 10.0 mi SSE 4.6 mph - N/A   Clear
10:53 PM 71.1 °F - 64.0 °F 78% 30.01 in 10.0 mi SSE 9.2 mph - N/A   Clear
11:53 PM 70.0 °F - 64.9 °F 84% 30.03 in 10.0 mi Calm Calm - N/A   Clear